FW9575 Weather Reports


time (UTC)temp
F
wind
direction
speed
knots
gust
knots
rain 1hr
in
rain 24hr
in
rain mn
in
humidity
%
barometer
mb
20260505011914 63 15 2.6 7.0 0.00 0.00 0.00 35 1003.7
20260505011410 63 30 3.5 10.4 0.00 0.00 0.00 34 1003.3
20260505010907 64 23 2.6 7.8 0.00 0.00 0.00 34 1003.1
20260505010403 65 34 4.3 16.5 0.00 0.00 0.00 33 1002.7
20260505005859 66 29 7.8 10.4 0.00 0.00 0.00 33 1003.2
20260505005355 66 29 2.6 13.9 0.00 0.00 0.00 33 1003.0
20260505004854 67 17 3.5 9.6 0.00 0.00 0.00 32 1003.3
20260505004349 68 354 3.5 7.8 0.00 0.00 0.00 32 1002.8
20260505003847 69 14 2.6 7.8 0.00 0.00 0.00 31 1003.1
20260505003344 69 18 0.9 5.2 0.00 0.00 0.00 32 1002.7
20260505002840 70 60 3.5 7.0 0.00 0.00 0.00 31 1002.8
20260505002337 70 11 2.6 8.7 0.00 0.00 0.00 31 1002.6
20260505001835 70 15 4.3 5.2 0.00 0.00 0.00 31 1002.5
20260505001332 70 358 4.3 7.8 0.00 0.00 0.00 30 1002.7
20260505000829 70 4 2.6 4.3 0.00 0.00 0.00 31 1002.6
20260505000327 70 25 2.6 10.4 0.00 0.00 0.00 30 1002.4
20260504235823 71 106 2.6 7.8 0.00 0.00 0.00 30 1002.2
20260504235321 71 11 3.5 8.7 0.00 0.00 0.00 30 1002.3
20260504234817 72 45 3.5 7.0 0.00 0.00 0.00 30 1002.4
20260504234315 72 58 5.2 9.6 0.00 0.00 0.00 29 1002.5
20260504233811 72 345 1.7 8.7 0.00 0.00 0.00 29 1002.6
20260504233307 73 15 1.7 5.2 0.00 0.00 0.00 30 1002.5
20260504232804 72 356 4.3 7.0 0.00 0.00 0.00 30 1001.9
20260504232303 72 38 2.6 7.0 0.00 0.00 0.00 30 1002.3
20260504231758 72 23 2.6 11.3 0.00 0.00 0.00 30 1002.4
20260504231254 73 42 2.6 6.1 0.00 0.00 0.00 29 1002.4
20260504230750 73 22 2.6 8.7 0.00 0.00 0.00 29 1002.1
20260504230248 74 25 4.3 7.0 0.00 0.00 0.00 28 1002.1
20260504225747 74 35 5.2 7.8 0.00 0.00 0.00 28 1002.1
20260504225243 75 11 5.2 9.6 0.00 0.00 0.00 28 1002.3
20260504224740 75 340 1.7 7.0 0.00 0.00 0.00 28 1001.9
20260504224237 76 339 5.2 16.5 0.00 0.00 0.00 27 1001.8
20260504223733 75 20 2.6 7.8 0.00 0.00 0.00 28 1001.7
20260504223229 77 12 1.7 11.3 0.00 0.00 0.00 28 1001.6
20260504222727 77 358 1.7 6.1 0.00 0.00 0.00 27 1001.4
20260504222223 78 46 2.6 9.6 0.00 0.00 0.00 27 1001.0
20260504221721 76 5 2.6 5.2 0.00 0.00 0.00 27 1000.9
20260504221218 76 21 3.5 7.8 0.00 0.00 0.00 27 1000.9
20260504220714 76 35 2.6 9.6 0.00 0.00 0.00 26 1000.9
20260504220212 77 357 2.6 4.3 0.00 0.00 0.00 27 1000.9
20260504215708 77 20 1.7 5.2 0.00 0.00 0.00 28 1000.9
20260504215206 78 287 1.7 7.8 0.00 0.00 0.00 27 1000.8
20260504214701 80 26 2.6 7.0 0.00 0.00 0.00 28 1000.5
20260504214158 80 352 4.3 9.6 0.00 0.00 0.00 27 1000.3
20260504213654 80 339 4.3 17.4 0.00 0.00 0.00 27 1000.3
20260504213151 81 35 3.5 7.0 0.00 0.00 0.00 27 1000.2
20260504212647 80 73 1.7 6.1 0.00 0.00 0.00 29 1000.2
20260504212144 80 325 1.7 7.8 0.00 0.00 0.00 28 1000.2
20260504211642 81 64 1.7 7.8 0.00 0.00 0.00 30 1000.2
20260504211138 80 62 5.2 6.1 0.00 0.00 0.00 28 1000.4
20260504210636 80 358 7.8 7.8 0.00 0.00 0.00 30 1000.2
20260504210132 81 26 1.7 9.6 0.00 0.00 0.00 31 1000.2
20260504205630 80 323 7.8 12.2 0.00 0.00 0.00 29 1000.1
20260504205127 79 19 1.7 10.4 0.00 0.00 0.00 31 1000.3
20260504204625 80 347 1.7 9.6 0.00 0.00 0.00 30 1000.2
20260504204124 80 351 2.6 8.7 0.00 0.00 0.00 31 1000.2
20260504203622 80 351 0.0 8.7 0.00 0.00 0.00 31 1000.3
20260504203119 82 339 4.3 6.1 0.00 0.00 0.00 29 1000.4
20260504202614 82 8 1.7 7.8 0.00 0.00 0.00 30 1000.1
20260504202111 82 347 2.6 7.0 0.00 0.00 0.00 29 999.9
20260504201608 82 297 1.7 6.1 0.00 0.00 0.00 30 1000.0
20260504201106 82 11 2.6 8.7 0.00 0.00 0.00 28 1000.0
20260504200603 82 342 2.6 8.7 0.00 0.00 0.00 29 1000.1
20260504200059 83 311 1.7 4.3 0.00 0.00 0.00 28 1000.1
20260504195555 82 33 1.7 10.4 0.00 0.00 0.00 28 1000.1
20260504195052 82 342 5.2 8.7 0.00 0.00 0.00 27 999.9
20260504194548 83 352 2.6 6.1 0.00 0.00 0.00 27 1000.0
20260504194044 83 7 0.0 7.8 0.00 0.00 0.00 28 1000.0
20260504193541 83 56 0.0 5.2 0.00 0.00 0.00 26 999.9
20260504193039 83 354 2.6 8.7 0.00 0.00 0.00 26 999.9
20260504192537 83 271 6.1 8.7 0.00 0.00 0.00 26 999.9
20260504192035 84 294 3.5 7.0 0.00 0.00 0.00 26 999.8
20260504191533 83 6 2.6 7.0 0.00 0.00 0.00 26 999.9
20260504191029 83 335 1.7 7.8 0.00 0.00 0.00 27 999.9
20260504190525 83 335 3.5 5.2 0.00 0.00 0.00 26 999.8
20260504190021 83 290 5.2 7.0 0.00 0.00 0.00 25 999.8
20260504185518 84 346 2.6 7.0 0.00 0.00 0.00 25 999.8
20260504185015 83 279 4.3 13.9 0.00 0.00 0.00 24 999.7
20260504184510 83 6 2.6 12.2 0.00 0.00 0.00 26 999.8
20260504184006 83 336 1.7 7.8 0.00 0.00 0.00 26 999.8
20260504183503 82 276 3.5 13.9 0.00 0.00 0.00 26 999.9
20260504183002 83 338 2.6 5.2 0.00 0.00 0.00 25 999.9
20260504182458 83 286 2.6 7.8 0.00 0.00 0.00 26 999.7
20260504181955 84 317 3.5 7.8 0.00 0.00 0.00 23 999.7
20260504181452 82 311 2.6 8.7 0.00 0.00 0.00 24 999.9
20260504180950 82 313 1.7 20.0 0.00 0.00 0.00 24 999.8
20260504180449 83 331 3.5 11.3 0.00 0.00 0.00 24 999.7
20260504175947 82 48 0.9 7.0 0.00 0.00 0.00 23 999.6
20260504175444 82 340 1.7 8.7 0.00 0.00 0.00 24 999.9
20260504174941 82 283 8.7 12.2 0.00 0.00 0.00 24 999.7
20260504174439 82 11 0.0 6.1 0.00 0.00 0.00 24 999.8
20260504173936 82 300 3.5 11.3 0.00 0.00 0.00 24 999.9
20260504173432 82 331 0.9 7.8 0.00 0.00 0.00 24 999.9
20260504172930 82 317 4.3 12.2 0.00 0.00 0.00 24 1000.0
20260504172426 81 233 1.7 7.0 0.00 0.00 0.00 25 1000.2
20260504171922 81 275 6.1 11.3 0.00 0.00 0.00 26 1000.3
20260504171420 81 344 2.6 9.6 0.00 0.00 0.00 26 1000.1
20260504170917 80 306 2.6 11.3 0.00 0.00 0.00 27 1000.6
20260504170413 80 311 0.0 7.0 0.00 0.00 0.00 29 1000.2
20260504160332 73 246 2.6 8.7 0.00 0.00 0.00 38 1000.8
20260504150756 68 281 2.6 4.3 0.00 0.00 0.00 46 1000.8
20260504150253 67 331 2.6 5.2 0.00 0.00 0.00 48 1001.0
20260504141223 64 0 2.6 4.3 0.00 0.00 0.00 53 1001.1
20260504140720 62 357 0.9 4.3 0.00 0.00 0.00 54 1001.2
20260504140215 62 276 0.9 3.5 0.00 0.00 0.00 54 1001.4
20260504130644 56 351 1.7 3.5 0.00 0.00 0.00 61 1000.9
20260504130140 56 341 1.7 3.5 0.00 0.00 0.00 62 1000.9
20260504120104 51 350 1.7 3.5 0.00 0.00 0.00 72 1000.2
20260504110531 52 338 1.7 2.6 0.00 0.00 0.00 68 1000.1
20260504100448 56 338 2.6 2.6 0.00 0.00 0.00 57 1000.3
20260504081841 62 113 1.7 2.6 0.00 0.00 0.00 43 1001.6
20260504081338 62 104 0.9 2.6 0.00 0.00 0.00 43 1001.7
20260504080833 62 67 0.9 2.6 0.00 0.00 0.00 43 1001.8
20260504080331 61 74 1.7 1.7 0.00 0.00 0.00 43 1001.7
20260504070258 62 102 0.0 1.7 0.00 0.00 0.00 42 1003.3
20260504060218 62 96 0.9 2.6 0.00 0.00 0.00 42 1004.3
20260504050646 62 103 0.9 2.6 0.00 0.00 0.00 42 1004.6
20260504050143 62 86 0.9 1.7 0.00 0.00 0.00 42 1004.6
20260504045640 63 18 0.0 1.7 0.00 0.00 0.00 42 1004.7
20260504045140 63 19 0.9 1.7 0.00 0.00 0.00 41 1004.7
20260504044638 63 63 0.0 1.7 0.00 0.00 0.00 41 1004.7
20260504044135 63 96 0.9 2.6 0.00 0.00 0.00 41 1004.9
20260504043632 64 103 0.9 1.7 0.00 0.00 0.00 40 1005.0
20260504043129 64 101 0.9 1.7 0.00 0.00 0.00 41 1005.0
20260504042626 64 102 1.7 1.7 0.00 0.00 0.00 41 1005.1
20260504042123 64 91 1.7 1.7 0.00 0.00 0.00 41 1005.1
20260504041619 64 108 0.0 1.7 0.00 0.00 0.00 40 1005.1
20260504041115 64 96 0.0 1.7 0.00 0.00 0.00 40 1005.4
20260504040613 64 106 0.0 1.7 0.00 0.00 0.00 40 1005.5
20260504040109 65 77 1.7 4.3 0.00 0.00 0.00 40 1005.4
20260504035606 64 96 0.9 1.7 0.00 0.00 0.00 40 1005.2
20260504035102 64 103 1.7 1.7 0.00 0.00 0.00 40 1005.5
20260504034600 65 57 0.0 1.7 0.00 0.00 0.00 40 1005.6
20260504034057 65 87 0.9 1.7 0.00 0.00 0.00 39 1005.7
20260504033555 64 84 0.9 1.7 0.00 0.00 0.00 40 1005.7
20260504033052 64 57 0.0 0.9 0.00 0.00 0.00 40 1005.6
20260504032549 65 21 0.0 0.9 0.00 0.00 0.00 40 1005.6
20260504032046 64 101 0.0 1.7 0.00 0.00 0.00 40 1005.6
20260504031543 65 78 0.9 1.7 0.00 0.00 0.00 41 1005.6
20260504031039 65 50 0.0 0.9 0.00 0.00 0.00 41 1005.3
20260504030536 65 43 0.0 0.9 0.00 0.00 0.00 41 1005.7
20260504030032 65 58 0.0 1.7 0.00 0.00 0.00 41 1005.7
20260504025530 66 65 0.0 1.7 0.00 0.00 0.00 40 1005.7
20260504025026 66 94 0.0 0.9 0.00 0.00 0.00 39 1005.7
20260504024523 66 28 0.0 0.9 0.00 0.00 0.00 39 1005.6
20260504024020 67 89 0.0 1.7 0.00 0.00 0.00 38 1005.6
20260504023517 67 98 1.7 1.7 0.00 0.00 0.00 38 1005.7
20260504023013 67 100 1.7 1.7 0.00 0.00 0.00 39 1005.6
20260504022508 67 57 0.0 0.9 0.00 0.00 0.00 38 1005.7
20260504022005 67 39 1.7 1.7 0.00 0.00 0.00 38 1005.7
20260504021503 67 37 0.9 1.7 0.00 0.00 0.00 38 1005.9
20260504021000 67 0 0.0 0.9 0.00 0.00 0.00 38 1006.1
20260504020456 68 50 0.0 1.7 0.00 0.00 0.00 37 1005.8
20260504015953 68 6 0.0 1.7 0.00 0.00 0.00 37 1006.1
20260504015449 68 27 0.0 1.7 0.00 0.00 0.00 36 1005.9
20260504014945 68 24 0.0 0.9 0.00 0.00 0.00 37 1006.1
20260504014441 68 24 0.0 0.0 0.00 0.00 0.00 36 1006.1
20260504013938 69 39 0.9 1.7 0.00 0.00 0.00 36 1005.9
20260504013437 69 27 0.0 0.9 0.00 0.00 0.00 36 1005.9
20260504012932 69 112 0.0 0.9 0.00 0.00 0.00 35 1005.8
20260504012431 69 24 0.0 0.9 0.00 0.00 0.00 35 1006.0